TimeCDT,TemperatureF,Dew PointF,Humidity,Sea Level PressureIn,VisibilityMPH,Wind Direction,Wind SpeedMPH,Gust SpeedMPH,PrecipitationIn,Events,Conditions,WindDirDegrees,DateUTC
12:53 AM,48.0,28.9,48,30.23,10.0,Calm,Calm,-,N/A,,Partly Cloudy,0,2012-10-29 05:53:00
1:53 AM,45.0,28.0,52,30.25,10.0,North,4.6,-,N/A,,Partly Cloudy,350,2012-10-29 06:53:00
2:53 AM,45.0,28.0,52,30.25,10.0,North,3.5,-,N/A,,Clear,360,2012-10-29 07:53:00
3:53 AM,46.0,28.0,50,30.25,10.0,NNW,3.5,-,N/A,,Partly Cloudy,340,2012-10-29 08:53:00
4:53 AM,42.1,35.1,76,30.25,9.0,North,4.6,-,N/A,,Clear,360,2012-10-29 09:53:00
5:53 AM,43.0,34.0,71,30.25,10.0,Calm,Calm,-,N/A,,Clear,0,2012-10-29 10:53:00
6:53 AM,44.1,32.0,63,30.26,10.0,Calm,Calm,-,N/A,,Clear,0,2012-10-29 11:53:00
7:53 AM,42.1,30.0,62,30.26,10.0,Calm,Calm,-,N/A,,Partly Cloudy,0,2012-10-29 12:53:00
8:53 AM,46.9,35.1,63,30.28,10.0,Calm,Calm,-,N/A,,Partly Cloudy,0,2012-10-29 13:53:00
9:53 AM,52.0,33.1,49,30.30,10.0,Calm,Calm,-,N/A,,Scattered Clouds,0,2012-10-29 14:53:00
10:53 AM,57.9,27.0,31,30.30,10.0,SSE,5.8,-,N/A,,Mostly Cloudy,150,2012-10-29 15:53:00
11:53 AM,61.0,24.1,24,30.28,10.0,SE,6.9,-,N/A,,Scattered Clouds,140,2012-10-29 16:53:00
12:53 PM,63.0,23.0,22,30.25,10.0,Calm,Calm,-,N/A,,Scattered Clouds,0,2012-10-29 17:53:00
1:53 PM,64.9,24.1,21,30.22,10.0,Calm,Calm,-,N/A,,Partly Cloudy,0,2012-10-29 18:53:00
2:53 PM,66.0,21.9,19,30.18,10.0,West,5.8,-,N/A,,Partly Cloudy,280,2012-10-29 19:53:00
3:53 PM,66.9,24.1,20,30.15,10.0,SSE,4.6,-,N/A,,Partly Cloudy,150,2012-10-29 20:53:00
4:53 PM,68.0,21.9,17,30.14,10.0,Calm,Calm,-,N/A,,Partly Cloudy,0,2012-10-29 21:53:00
5:53 PM,66.0,24.1,20,30.13,10.0,SSW,4.6,-,N/A,,Partly Cloudy,210,2012-10-29 22:53:00
6:53 PM,61.0,28.0,29,30.12,10.0,ESE,4.6,-,N/A,,Partly Cloudy,110,2012-10-29 23:53:00
7:53 PM,55.9,30.0,37,30.13,10.0,SE,6.9,-,N/A,,Partly Cloudy,130,2012-10-30 00:53:00
8:53 PM,54.0,30.0,40,30.13,10.0,SE,4.6,-,N/A,,Partly Cloudy,130,2012-10-30 01:53:00
9:53 PM,55.9,30.0,37,30.13,10.0,SE,4.6,-,N/A,,Partly Cloudy,130,2012-10-30 02:53:00
10:53 PM,53.1,30.9,43,30.13,10.0,East,3.5,-,N/A,,Partly Cloudy,100,2012-10-30 03:53:00
11:53 PM,52.0,32.0,47,30.11,10.0,Calm,Calm,-,N/A,,Partly Cloudy,0,2012-10-30 04:53:00